User: anonymous   Login
Location: Unspecified
(0.0000°N, 0.0000°E)
Time: 01:04:36
(UTC+00:00)
Language:

ONEWEB-0699 - Orbit

View from above orbital plane
View from above orbital plane
View from above satellite
View from above satellite

Ground track
Ground track

The orbit is defined by the following mean orbital elements,

1 61605U          26145.46098909 +.00000000 +00000-0 +16347-2 0 00007
2 61605  87.8856  40.7904 0001143  78.1931 281.9325 13.10374439    09
Epoch (UTC): 25 May 2026 11:03:49
Eccentricity: 0.0001143
inclination: 87.8856°
perigee height: 1221 km
apogee height: 1223 km
right ascension of ascending node: 40.7904°
argument of perigee: 78.1931°
revolutions per day: 13.10374439
mean anomaly at epoch: 281.9325°

The dashed part of the orbit path shows where the satellite is in the earth's shadow,  

DLR